User: anonymous   Login
Location: Unspecified
(0.0000°N, 0.0000°E)
Time: 06:03:33
(UTC+01:00)
Language:

Cosmos 1536 - Orbit

View from above orbital plane
View from above orbital plane
View from above satellite
View from above satellite

Ground track
Ground track

The orbit data is extracted from the following two-line orbital elements,

1 14699U 84013A   14331.52694831  .00002786  00000-0  20549-3 0  2400
2 14699 082.5254 151.5115 0013157 358.9558 001.1637 15.02868111672877
Epoch (UTC): 27 November 2014 12:38:48
Eccentricity: 0.0013157
inclination: 82.5254°
perigee height: 549 km
apogee height: 567 km
right ascension of ascending node: 151.5115°
argument of perigee: 358.9558°
revolutions per day: 15.02868111
mean anomaly at epoch: 1.1637°
orbit number at epoch: 67287

The dashed part of the orbit path shows where the satellite is in the earth's shadow,  

DLR